Meteo Giornale » Osservazioni meteo Italia » Bologna-Borgo Panigale

ore: 00:50 - Osservazioni Meteo Bologna-Borgo Panigale
Lat. 44° 32' N Lon. 11° 18' E Alt. 36 metri s.l.m.

nebbia Europe/Rome

3 °C

Nebbia

Temp. 24 Ore

0 °C

7 °C

Nord

3.7 Km/h

Dew point 3 °C

Umidità 100 %

Visibilità  0.1 Km

Il sole sorge alle ore 07:43

Il sole tramonta alle ore 16:37

Data e Ora Cielo e Fenomeni T °C DP °C Um. % Pres. hPa Vis. km Vento km/h
Oggi h: 00:50 nebbia Nebbia 3 3 100 1001 0.1 N 3.7
Oggi h: 00:20 nebbia Nebbia 3 3 100 1002 0.1 N 3.7
Ieri h: 23:50 nebbia Nebbia 3 3 100 1002 0.1 E/NE 7.4
Ieri h: 23:20 nebbia Nebbia 3 3 100 1002 0.1 N 5.5
Ieri h: 22:50 nebbia Nebbia 3 3 100 1002 0.1 N 5.5
Ieri h: 22:20 nebbia Nebbia 3 2 93 1002 0.1 E/SE 7.4
Ieri h: 21:50 nebbia Nebbia 3 2 93 1003 0.1 E 9.3
Ieri h: 21:20 nebbia Nebbia 2 1 93 1003 0.1 N 5.5
Ieri h: 20:50 foschia Foschia 1 0 93 1003 5 N 5.5
Ieri h: 20:20 sereno Sereno 1 -0 93 1003 7 N 0
Ieri h: 19:50 sereno Sereno 3 2 93 1004 8 N 1.8
Ieri h: 19:20 sereno Sereno 3 2 93 1004 8 N 3.7
Ieri h: 18:50 sereno Sereno 3 2 93 1004 8 E 7.4
Ieri h: 18:20 sereno Sereno 4 2 86 1004 8 N 5.5
Ieri h: 17:20 sereno Sereno 4 2 86 1005 8 NE 7.4
Ieri h: 16:50 sereno Sereno 5 2 80 1005 8 N 3.7
Ieri h: 16:20 sereno Sereno 6 2 75 1006 8 N 5.5
Ieri h: 15:50 sereno Sereno 7 2 70 1006 7 N 3.7
Ieri h: 15:20 sereno Sereno 7 2 70 1007 10 N 5.5
Ieri h: 14:50 sereno Sereno 7 2 70 1007 10 N 7.4
Ieri h: 14:20 sereno Sereno 7 2 70 1006 8 N 7.4
Ieri h: 13:50 sereno Sereno 7 2 70 1006 8 N 5.5
Ieri h: 13:20 nuvoloso Nuvoloso 7 2 70 1007 7 O/NO 7.4
Ieri h: 12:50 nuvoloso Nuvoloso 7 2 70 1008 7 O/NO 11.1
Ieri h: 12:20 nuvoloso Nuvoloso 6 3 81 1008 7 O 13
Ieri h: 11:50 nuvoloso Nuvoloso 6 3 81 1009 6 O/NO 13
Ieri h: 11:20 foschia Foschia 6 3 81 1010 5 O/NO 13
Ieri h: 10:50 foschia Foschia 5 3 86 1010 5 O 13
Ieri h: 10:20 foschia Foschia 4 3 93 1010 4 O 14.8
Ieri h: 09:50 foschia Foschia 3 3 100 1010 3 O 13
Ieri h: 09:20 foschia Foschia 3 2 93 1010 2 O/NO 9.3
Ieri h: 08:50 foschia Foschia 2 2 100 1009 2 NO 7.4
Ieri h: 08:20 foschia Foschia 2 2 100 1009 3 N 7.4
Ieri h: 07:50 foschia Foschia 2 2 100 1009 2 S 7.4
Ieri h: 07:20 foschia Foschia 3 2 93 1009 2 O 7.4
Ieri h: 06:50 foschia Foschia 3 3 100 1009 2 O/SO 9.3
Ieri h: 06:20 nebbia Nebbia 3 2 93 1009 0.7 O 7.4
Ieri h: 05:50 nebbia Nebbia 2 2 100 1009 0.7 O 7.4
Ieri h: 05:20 nebbia Nebbia 1 1 100 1009 0.1 O/SO 7.4
Ieri h: 04:50 nebbia Nebbia 1 1 100 1009 0.1 O/NO 11.1
Ieri h: 04:20 nebbia Nebbia 1 1 100 1010 0.6 O/NO 9.3
Ieri h: 03:50 foschia Foschia 1 0 93 1010 2 N 5.5
Ieri h: 03:20 foschia Foschia 1 0 93 1010 2 N 3.7
Ieri h: 02:50 foschia Foschia 0 0 100 1010 2 N 5.5
Ieri h: 02:20 foschia Foschia 0 -0 100 1011 2 N 5.5
Ieri h: 01:50 nuvoloso Nuvoloso 1 1 100 1011 8 N 3.7
Ieri h: 01:20 nuvoloso Nuvoloso 1 0 93 1011 8 N 1.8
Ieri h: 00:50 nuvoloso Nuvoloso 1 0 93 1012 8 N 1.8